When you browse on this site, cookies collect data to enhance your experience and personalize the content and advertising you see.
Visit our Privacy Policy to learn more. By continuing to use the site, you agree to this use of cookies and data.
  • In Hungary
  • List of Countries
  • For 7 days
  • Water Temperature
  • Satellite Maps
  • Weather Map
  • News
  • Weather Widgets
  • user-avatar
    Login

    Hourly Weather Collegno

    Today, 21 January, Monday

    Time Temperature Precipitation Wind Pressure Humidity
    00:00 +1°C° 0 mm 0 mps 736 mmHg 73%
    01:00 +2°C° 0 mm 1 mps 736 mmHg 72%
    02:00 +2°C° 0 mm 1 mps 736 mmHg 71%
    03:00 +2°C° 0 mm 1 mps 736 mmHg 69%
    04:00 +2°C° 0 mm 1 mps 736 mmHg 67%
    05:00 +2°C° 0 mm 1 mps 736 mmHg 66%
    06:00 +2°C° 0 mm 1 mps 736 mmHg 65%
    07:00 0°C° 0 mm 0 mps 736 mmHg 64%
    08:00 +1°C° 0 mm 0 mps 736 mmHg 59%
    09:00 +2°C° 0 mm 0 mps 736 mmHg 55%
    10:00 +3°C° 0 mm 0 mps 737 mmHg 51%
    11:00 +5°C° 0 mm 1 mps 736 mmHg 48%
    12:00 +6°C° 0 mm 1 mps 736 mmHg 45%
    13:00 +7°C° 0 mm 1 mps 736 mmHg 42%
    14:00 +7°C° 0 mm 1 mps 735 mmHg 44%
    15:00 +7°C° 0 mm 1 mps 735 mmHg 45%
    16:00 +7°C° 0 mm 1 mps 735 mmHg 46%
    17:00 +6°C° 0 mm 1 mps 735 mmHg 49%
    18:00 +4°C° 0 mm 1 mps 735 mmHg 52%
    19:00 +3°C° 0 mm 1 mps 736 mmHg 55%
    20:00 +3°C° 0 mm 1 mps 736 mmHg 54%
    21:00 +3°C° 0 mm 1 mps 736 mmHg 53%
    22:00 +3°C° 0 mm 1 mps 736 mmHg 51%
    23:00 +2°C° 0 mm 1 mps 736 mmHg 50%

    Tomorrow, 22 January, Tuesday

    Time Temperature Precipitation Wind Pressure Humidity
    00:00 +2°C° 0 mm 1 mps 736 mmHg 49%
    01:00 +2°C° 0 mm 1 mps 736 mmHg 48%
    02:00 +2°C° 0 mm 1 mps 735 mmHg 47%
    03:00 +2°C° 0 mm 1 mps 735 mmHg 46%
    04:00 +2°C° 0 mm 1 mps 734 mmHg 45%
    05:00 +2°C° 0 mm 1 mps 734 mmHg 44%
    06:00 +2°C° 0 mm 1 mps 733 mmHg 43%
    07:00 +1°C° 0 mm 1 mps 733 mmHg 42%
    08:00 +2°C° 0 mm 1 mps 733 mmHg 40%
    09:00 +2°C° 0 mm 0 mps 732 mmHg 37%
    10:00 +3°C° 0 mm 0 mps 732 mmHg 35%
    11:00 +5°C° 0 mm 1 mps 731 mmHg 34%
    12:00 +6°C° 0 mm 1 mps 730 mmHg 33%
    13:00 +7°C° 0 mm 1 mps 729 mmHg 32%
    14:00 +7°C° 0 mm 1 mps 729 mmHg 35%
    15:00 +7°C° 0 mm 1 mps 728 mmHg 38%
    16:00 +6°C° 0 mm 1 mps 727 mmHg 41%
    17:00 +5°C° 0 mm 1 mps 727 mmHg 45%
    18:00 +4°C° 0 mm 1 mps 727 mmHg 49%
    19:00 +1°C° 0 mm 0 mps 726 mmHg 54%
    20:00 +1°C° 0 mm 0 mps 726 mmHg 54%
    21:00 +1°C° 0 mm 0 mps 726 mmHg 54%
    22:00 +2°C° 0 mm 1 mps 726 mmHg 53%
    23:00 +1°C° 0 mm 0 mps 725 mmHg 53%

    Day after tomorrow, 23 January, Wednesday

    Time Temperature Precipitation Wind Pressure Humidity
    00:00 0°C° 0 mm 0 mps 725 mmHg 53%
    01:00 0°C° 0 mm 0 mps 724 mmHg 53%
    02:00 0°C° 0 mm 0 mps 724 mmHg 54%
    03:00 0°C° 0 mm 0 mps 723 mmHg 54%
    04:00 0°C° 0 mm 0 mps 723 mmHg 54%
    05:00 0°C° 0 mm 0 mps 722 mmHg 54%
    06:00 0°C° 0 mm 0 mps 722 mmHg 54%
    07:00 0°C° 0 mm 0 mps 722 mmHg 54%
    08:00 +1°C° 0 mm 0 mps 722 mmHg 52%
    09:00 +1°C° 0 mm 0 mps 721 mmHg 50%
    10:00 +2°C° 0 mm 0 mps 721 mmHg 48%
    11:00 +3°C° 0.2 mm 1 mps 721 mmHg 51%
    12:00 +3°C° 0.2 mm 1 mps 721 mmHg 53%
    13:00 +3°C° 0.2 mm 1 mps 720 mmHg 56%
    14:00 +2°C° 0.7 mm 1 mps 720 mmHg 63%
    15:00 +1°C° 0.7 mm 2 mps 720 mmHg 70%
    16:00 -1°C° 0.7 mm 2 mps 720 mmHg 77%
    17:00 -1°C° 0.8 mm 2 mps 720 mmHg 80%
    18:00 -1°C° 0.8 mm 2 mps 720 mmHg 83%
    19:00 -1°C° 0.8 mm 2 mps 721 mmHg 85%
    20:00 -1°C° 0.8 mm 2 mps 721 mmHg 85%
    21:00 +1°C° 0.8 mm 2 mps 722 mmHg 84%
    22:00 0°C° 0.8 mm 3 mps 723 mmHg 84%
    23:00 +1°C° 0.4 mm 2 mps 723 mmHg 83%

    24 January, Thursday

    Time Temperature Precipitation Wind Pressure Humidity
    00:00 +1°C° 0.4 mm 2 mps 724 mmHg 83%
    01:00 +2°C° 0.4 mm 1 mps 724 mmHg 82%
    02:00 +1°C° 0.1 mm 1 mps 724 mmHg 81%
    03:00 -1°C° 0.1 mm 2 mps 725 mmHg 80%
    04:00 -1°C° 0.1 mm 2 mps 725 mmHg 78%
    05:00 -1°C° 0 mm 2 mps 725 mmHg 76%
    06:00 -1°C° 0 mm 2 mps 725 mmHg 74%
    07:00 -1°C° 0 mm 2 mps 726 mmHg 72%
    08:00 +1°C° 0 mm 2 mps 726 mmHg 69%
    09:00 +2°C° 0 mm 2 mps 727 mmHg 67%
    10:00 +3°C° 0 mm 2 mps 727 mmHg 65%
    11:00 +5°C° 0 mm 1 mps 727 mmHg 65%
    12:00 +6°C° 0 mm 1 mps 727 mmHg 65%
    13:00 +7°C° 0 mm 1 mps 727 mmHg 65%
    14:00 +6°C° 0 mm 1 mps 728 mmHg 68%
    15:00 +6°C° 0 mm 1 mps 728 mmHg 70%
    16:00 +6°C° 0 mm 1 mps 728 mmHg 72%
    17:00 +4°C° 0 mm 1 mps 729 mmHg 71%
    18:00 +3°C° 0 mm 1 mps 730 mmHg 70%
    19:00 +2°C° 0 mm 1 mps 731 mmHg 70%
    20:00 +1°C° 0 mm 2 mps 731 mmHg 67%
    21:00 -1°C° 0 mm 2 mps 732 mmHg 63%
    22:00 -1°C° 0 mm 2 mps 733 mmHg 60%
    23:00 -1°C° 0 mm 2 mps 733 mmHg 59%

    25 January, Friday

    Time Temperature Precipitation Wind Pressure Humidity
    00:00 -1°C° 0 mm 2 mps 733 mmHg 57%
    01:00 -1°C° 0 mm 2 mps 733 mmHg 55%
    02:00 -1°C° 0 mm 2 mps 733 mmHg 55%
    03:00 -2°C° 0 mm 2 mps 733 mmHg 54%
    04:00 -2°C° 0 mm 2 mps 733 mmHg 54%
    05:00 -2°C° 0 mm 2 mps 733 mmHg 54%
    06:00 0°C° 0 mm 1 mps 733 mmHg 53%
    07:00 0°C° 0 mm 1 mps 733 mmHg 53%
    08:00 +1°C° 0 mm 1 mps 734 mmHg 53%
    09:00 +3°C° 0 mm 1 mps 734 mmHg 53%
    10:00 +4°C° 0 mm 1 mps 734 mmHg 52%
    11:00 +5°C° 0 mm 1 mps 734 mmHg 52%
    12:00 +6°C° 0 mm 1 mps 734 mmHg 52%
    13:00 +7°C° 0 mm 1 mps 734 mmHg 52%
    14:00 +7°C° 0 mm 1 mps 733 mmHg 54%
    15:00 +7°C° 0 mm 1 mps 733 mmHg 55%
    16:00 +7°C° 0 mm 1 mps 733 mmHg 56%
    17:00 +5°C° 0 mm 1 mps 734 mmHg 56%
    18:00 +4°C° 0 mm 1 mps 734 mmHg 55%
    19:00 +2°C° 0 mm 2 mps 735 mmHg 55%
    20:00 +2°C° 0 mm 2 mps 735 mmHg 53%
    21:00 +2°C° 0 mm 2 mps 735 mmHg 51%
    22:00 +2°C° 0 mm 2 mps 735 mmHg 50%
    23:00 +2°C° 0 mm 2 mps 735 mmHg 51%

    26 January, Saturday

    Time Temperature Precipitation Wind Pressure Humidity
    00:00 +3°C° 0 mm 1 mps 735 mmHg 52%
    01:00 +3°C° 0 mm 1 mps 735 mmHg 53%
    02:00 +3°C° 0 mm 1 mps 735 mmHg 55%
    03:00 +3°C° 0 mm 1 mps 735 mmHg 56%
    04:00 +3°C° 0 mm 1 mps 734 mmHg 58%
    05:00 +3°C° 0 mm 1 mps 734 mmHg 59%
    06:00 +2°C° 0 mm 1 mps 734 mmHg 60%
    07:00 +2°C° 0 mm 1 mps 734 mmHg 61%
    08:00 +3°C° 0 mm 1 mps 734 mmHg 60%
    09:00 +4°C° 0 mm 1 mps 734 mmHg 58%
    10:00 +5°C° 0 mm 1 mps 734 mmHg 57%
    11:00 +6°C° 0 mm 1 mps 734 mmHg 57%
    12:00 +7°C° 0 mm 1 mps 733 mmHg 58%
    13:00 +8°C° 0 mm 1 mps 732 mmHg 58%
    14:00 +7°C° 0 mm 1 mps 732 mmHg 58%
    15:00 +7°C° 0 mm 1 mps 731 mmHg 58%
    16:00 +6°C° 0 mm 1 mps 731 mmHg 59%
    17:00 +5°C° 0 mm 1 mps 731 mmHg 60%
    18:00 +4°C° 0 mm 1 mps 731 mmHg 62%
    19:00 +3°C° 0 mm 1 mps 731 mmHg 64%
    20:00 +3°C° 0 mm 1 mps 731 mmHg 66%
    21:00 +2°C° 0 mm 1 mps 730 mmHg 67%
    22:00 +2°C° 0 mm 1 mps 730 mmHg 69%
    23:00 +2°C° 0 mm 1 mps 729 mmHg 70%
    Show more